Location: New Plymouth
(39.0670°S, 174.0830°E)
Time: 14:31:35
(UTC+13:00)

NOAA 19 - Pass Details

Date: 23 August 2019
Orbit: 840 x 862 km, 99.2° (Epoch: 17 October)

Event Time Altitude Azimuth Distance (km) Brightness Sun altitude
Rises 04:32:53 0° 26° (NNE) 3,388 8.5 -29.3°
Reaches altitude 10° 04:35:15 10° 29° (NNE) 2,461 7.8 -28.9°
Maximum altitude 04:40:37 61° 108° (ESE) 965 5.6 -27.8°
Drops below altitude 10° 04:46:03 10° 187° (S) 2,496 7.6 -26.8°
Sets 04:48:28 0° 190° (S) 3,440 8.3 -26.3°
